Tracking 25620 objects as of 18-May-2022
HD Live streaming from Space Station
objects crossing your sky now

COSMOS 2251 DEB

Track COSMOS 2251 DEB now!
10-day predictions


NORAD ID: 33798
Int'l Code: 1993-036AP
Perigee: 690.8 km
Apogee: 825.1 km
Inclination: 74.0 °
Period: 99.8 minutes
Semi major axis: 7128 km
RCS: 0.048 m2 (small)
Launch date: June 16, 1993
Source: Commonwealth of Independent States (former USSR) (CIS)
Launch site: PLESETSK MISSILE AND SPACE COMPLEX (PKMTR)

Note: This is SATELLITE DEBRIS
aabbcc
Your satellite tracking list
Your tracking list is empty




NASA's NSSDC Master Catalog

Two Line Element Set (TLE):
1 33798U 93036AP  22138.18957984  .00000584  00000-0  17572-3 0  9990
2 33798  74.0325  40.6375 0094204 121.9445  30.3419 14.42318541697862
Source of the keplerian elements: AFSPC